一网星座-0594星 (ONEWEB-0594 )

导读 | 星芒AI

ONEWE-0594 是 OneWeb 卫星通信星座计划中的一颗低轨通信卫星,旨在为全球提供高速互联网服务。该卫星由空客防务与航天公司制造,采用标准化设计以提高部署效率。它运行在约 1200 公里的近地轨道,与其他 OneWeb 卫星协同工作,支持偏远地区的宽带接入。该星座计划由数百颗卫星组成,致力于实现全球覆盖,增强数字连接能力。ONEWE-0594 的发射和运行标志着 OneWeb 在恢复和扩展其卫星网络方面的重要进展。

基本信息
目录编号:
54660
目录名称:
ONEWEB-0594
国际标识:
2022-166U
轨道中心:
EARTH
卫星名称:
一网星座-0594星
卫星全名:
一网星座-0594星 (ONEWEB-0594 )
卫星状态:
在轨 (已飞行1103 天)
发射日期:
2022-12-08 UTC
国别 :
英国 (GB)
星等 :
--
轨道信息
数据来源 国际轨道数据 AOE轨道数据
星历时间 2025-12-15T05:11:22+0800
21小时前
查看轨道信息
2025-12-15T14:00:00+0800
13小时前
查看轨道信息
半长轴 7555.896km 7555.914km
偏心率 0.0001808 0.0002661
轨道倾角 87.922° 87.921°
近地点辐角 74.488° 98.964°
升交点赤经 280.759° 280.685°
平近点角 285.645° 207.048°
近地点 1176.394km 1175.768km
远地点 1179.128km 1179.79km
周期 108.940分钟 108.941分钟
每日圈数 13.218247 13.2182
详细信息
平衡模式:
三轴稳定
覆盖范围:
全球
运营商:
一网卫星公司
运营商所在国:
英国
制造商(研发单位):
一网卫星公司
制造商所在国:
英国
使用方式:
暂无
卫星简介
OneWeb卫星网络由648颗重约125公斤的微型卫星组成,运行在1200公里的轨道上。 每颗卫星都能够提供至少每秒8千兆位的吞吐量,以使用其高吞吐量的Ku频段有效载荷为家庭和移动平台提供互联网接入。该卫星仍在工作。
2D轨道图
3D轨道图
轨道高度分析图
轨道倾角分析图
轨道综合分析图
查看轨道综合分析图